Regional Weather Roundup
Issued by NWS Cleveland, OH

Home | Current Version | Previous Version | Graphics & Text | Print | Product List | Glossary On
Versions: 1 2 3 4 5 6 7 8 9 10 11 12 13 14 15 16 17 18 19 20 21 22 23 24 25 26 27 28 29 30 31 32 33 34 35 36 37 38 39 40 41 42 43 44 45 46 47 48 49 50
000
ASUS41 KCLE 060710
RWRCLE
OHIO REGIONAL WEATHER ROUNDUP
NATIONAL WEATHER SERVICE WILMINGTON, OH
200 AM EST TUE DEC 06 2016

NOTE: "FAIR" INDICATES FEW OR NO CLOUDS BELOW 12,000 FEET WITH NO
SIGNIFICANT WEATHER AND/OR OBSTRUCTIONS TO VISIBILITY.

OHZ001>008-015>018-024>027-034-035-043-044-060800-
   NORTHWEST OHIO

CITY           SKY/WX    TMP DP  RH WIND       PRES   REMARKS
DEFIANCE       FAIR      31  26  82 E7        29.97F WCI  24
FINDLAY        FAIR      31  26  82 NE9       29.94F WCI  23
TOLEDO EXPRESS FAIR      30  30 100 E7        29.98F WCI  23
TOLEDO EXEC    FAIR      33  30  88 E7        30.00F WCI  27
LIMA           FAIR      30  27  88 E9        29.92F WCI  22
$$

OHZ009>014-019>023-028>033-038-089-060800-
   NORTHEAST OHIO

CITY           SKY/WX    TMP DP  RH WIND       PRES   REMARKS
CLE-HOPKINS    MOCLDY    31  25  78 E6        30.04F WCI  25
CLE-LAKEFRONT  FAIR      33  27  78 NE6       30.03F WCI  28
CUY CO. ARPT   NOT AVBL
LORAIN-ELYRIA  FAIR      28  24  85 E7        30.01F WCI  21
ASHTABULA      FAIR      28  27  96 E6        30.06F WCI  22
AKRON-CANTON   FAIR      33  26  75 E12       29.99F WCI  24
WOOSTER        FAIR      29  25  85 E6        29.99F WCI  23
MANSFIELD      FAIR      30  27  88 E10       29.95F WCI  21
YOUNGSTOWN     MOCLDY    28  25  88 E7        30.02F WCI  21
$$

OHZ042-051>053-060>062-070>072-077>081-060800-
  SOUTHWEST OHIO

CITY           SKY/WX    TMP DP  RH WIND       PRES   REMARKS
CINC-COVINGTON CLOUDY    39  33  79 E13       29.81F
CINC-LUNKEN    FAIR      40  34  79 NE6       29.86F
HAMILTON       FAIR      37  31  78 NE7       29.86F
DAYTON         CLOUDY    35  30  82 E10       29.87F WCI  27
WRIGHT-PAT AFB FAIR      36  32  84 NE7       29.88F
DAYTON GENERAL FAIR      37  30  75 E12       29.85F
WILMINGTON     FAIR      35  31  85 E13G20    29.85F WCI  26
$$

OHZ036-037-039>041-045>050-054>059-063>069-073>076-082>088-060800-
  CENTRAL AND SOUTHEAST OHIO

CITY           SKY/WX    TMP DP  RH WIND       PRES   REMARKS
COLUMBUS       MOCLDY    36  31  82 E7        29.92F
OSU AIRPORT    FAIR      33  30  88 E7        29.92F WCI  27
BOLTON FIELD   FAIR      35  30  84 E9        29.91F WCI  27
RICKENBACK AFB FAIR      34  31  86 E12       29.91F WCI  26
NEWARK         FAIR      33  28  81 NE6       29.94F WCI  28
MARION         FAIR      29  25  85 E9        29.94F WCI  20
LANCASTER      FAIR      35  30  82 E8        29.93F WCI  29
ZANESVILLE     FAIR      35  28  75 NE10      29.95F WCI  27
NEW PHILLY     FAIR      32  28  85 E5        30.01F WCI  27
$$




USA.gov is the U.S. government's official web portal to all federal, state and local government web resources and services.